Regional Weather Roundup
Issued by NWS

Home | Current Version | Previous Version | Graphics & Text | Print | Product List | Glossary On
Versions: 1 2 3 4 5 6 7 8 9 10 11 12 13 14 15 16 17 18 19 20 21 22 23 24 25 26 27 28 29 30 31 32 33 34 35 36 37 38 39 40 41 42 43 44 45 46 47 48 49 50
000
ASUS43 KLOT 282310
RWRIL

ILLINOIS REGIONAL WEATHER ROUNDUP
NATIONAL WEATHER SERVICE CHICAGO/ROMEOVILLE IL
500 PM CST FRI NOV 28 2014

NOTE: "FAIR" INDICATES FEW OR NO CLOUDS BELOW 12,000 FEET WITH NO
SIGNIFICANT WEATHER AND/OR OBSTRUCTIONS TO VISIBILITY.

* THESE STATIONS ARE NOT UNDER NWS QUALITY CONTROL. THEY ALSO MAY NOT
  REPORT WEATHER SUCH AS PRECIPITATION OR FOG.

ILZ001-002-007-009-015-016-024-290000-
NORTHWEST ILLINOIS

CITY           SKY/WX    TMP DP  RH WIND       PRES   REMARKS
MOLINE         MOCLDY    33  28  81 E8        29.89F WCI  26
STERLING*      CLOUDY    34  27  75 SE5       29.93F WCI  30
SAVANNA*       CLOUDY    32  28  83 SE7       29.90F WCI  26
$$

ILZ003-004-008-010-011-017-018-290000-
NORTH CENTRAL ILLINOIS

CITY           SKY/WX    TMP DP  RH WIND       PRES   REMARKS
ROCKFORD       CLOUDY    31  26  82 SE9       29.95F WCI  23
FREEPORT*      MOCLDY    31  27  86 SE9       29.92F WCI  22
ROCHELLE*      CLOUDY    32  29  90 S9        29.95S WCI  24
DE KALB*       CLOUDY    30  27  88 SE10      29.96S WCI  21
PERU*          CLOUDY    35  31  85 S9        29.96F WCI  28
$$

ILZ005-006-012>014-019>023-290000-
NORTHEAST ILLINOIS

CITY           SKY/WX    TMP DP  RH WIND       PRES   REMARKS
CHICAGO-OHARE  CLOUDY    31  25  78 S13       29.97F WCI  21
CHICAGO-MIDWAY CLOUDY    34  24  67 S13G22    29.99F WCI  25
AURORA         CLOUDY    32  26  78 SE8       29.97S WCI  25
LANSING*       CLOUDY    32  24  72 S10       30.02R WCI  23
JOLIET*        CLOUDY    33  29  84 S7        29.99S WCI  27
WAUKEGAN       CLOUDY    30  22  72 S7        29.98R WCI  23
DUPAGE AIRPORT CLOUDY    31  26  82 S13       29.97S WCI  21
KANKAKEE*      MOCLDY    35  29  81 S9G16     30.02R WCI  27
WHEELING       CLOUDY    31  24  75 S10       30.01R WCI  22
MORRIS*        CLOUDY    35  31  87 S13       29.98R WCI  26
ROMEOVILLE*    CLOUDY    32  27  82 S10       29.99S WCI  24
NORTHERLY ISL    N/A     32  23  70 S13         N/A  WCI  22
$$

LMZ740>746-290000-
SOUTHERN LAKE MICHIGAN

STATION/POSITION SKY/WX   TEMP    WIND        PRES    VSBY  WAVE
                          AIR SEA DIR/SP/G                  HT/PER
                          (F)     (DEG/KT/KT) (MB)    (MI)  (FT/S)
SOUTHERN BUOY              35 42  180/ 19/ 25 1016.6F         5/ 6
WAUKEGAN HARBOR            32     190/ 12/ 18   N/A
HARRISON CRIB              31     170/ 23/ 27   N/A
BURNHAM HARBOR             32     170/ 12/ 16   N/A
CALUMET HARBOR             32     160/ 10/ 16 1015.0F
MICHIGAN CITY              30     140/ 13/ 19   N/A
$$

ILZ025>027-034>036-040-047-049-050-058-095>099-290000-
WEST-CENTRAL ILLINOIS

CITY           SKY/WX    TMP DP  RH WIND       PRES   REMARKS
QUINCY         PTCLDY    39  33  79 SE7       29.85F WCI  34
GALESBURG*     MOCLDY    34  31  88 E5        29.90S WCI  30
MACOMB*        PTCLDY    35  32  88 SE7       29.92S WCI  29
JACKSONVILLE*  CLEAR     40  34  80 SE10      29.91S
PITTSFIELD*    PTCLDY    44  34  68 SE7       29.89F
$$

ILZ028>032-037-038-041>044-048-051>054-059>061-290000-
CENTRAL ILLINOIS

CITY           SKY/WX    TMP DP  RH WIND       PRES   REMARKS
PONTIAC        CLOUDY    35  32  87 S9        30.00R WCI  28
BLOOMINGTON    CLOUDY    35  31  86 S12       29.98R WCI  27
DECATUR        PTCLDY    37  31  78 S15       29.98F WCI  28
PEORIA         MOCLDY    37  29  72 SE7       29.95S WCI  32
LACON*         MOCLDY    34  29  82 S7        29.95S WCI  28
LINCOLN*       PTCLDY    37  32  81 S10       29.96F WCI  30
SPRINGFIELD    PTCLDY    40  32  73 S18       29.94F
TAYLORVILLE    PTCLDY    37  32  81 S15       29.97F WCI  28
$$

ILZ033-039-045-046-055>057-062-063-290000-
EAST-CENTRAL ILLINOIS

CITY           SKY/WX    TMP DP  RH WIND       PRES   REMARKS
CHAMPAIGN      MOCLDY    35  30  82 S15       30.00S WCI  25
DANVILLE*      MOCLDY    34  28  81 SE9       29.99S WCI  26
RANTOUL*       CLOUDY    36  32  85 S12       30.00R WCI  28
MATTOON        PTCLDY    36  30  79 S15       30.00F WCI  27
PARIS*         PTCLDY    36  31  81 S14       30.04F WCI  27
$$

ILZ079-100>102-290000-
SOUTHWEST ILLINOIS

CITY           SKY/WX    TMP DP  RH WIND       PRES   REMARKS
ALTON          PTCLDY    43  32  65 SE10      29.95F
BELLEVILLE     MOCLDY    43  34  70 S15       29.96F
CAHOKIA*       MOCLDY    47  34  60 S12       29.95F
SPARTA*        PTCLDY    43  33  67 S12       30.01R
$$

ILZ064>066-069>071-074>076-080>082-084>086-088>090-092>094-290000-
SOUTH-CENTRAL ILLINOIS

CITY           SKY/WX    TMP DP  RH WIND       PRES   REMARKS
CARBONDALE     PTCLDY    44  29  55 S14       30.04F
CAIRO*         CLEAR     47  30  50 S9        30.09F
EFFINGHAM*     PTCLDY    40  29  65 SE8       30.03S
MARION         PTCLDY    45  30  57 S12       30.06F
MT. VERNON     PTCLDY    43  28  56 S10       30.04S
CENTRALIA*     PTCLDY    40  31  70 S9        30.02R
SALEM*           N/A     44  32  63 S10G17    30.03R
METROPOLIS*    CLEAR     46  29  50 S8          N/A
$$

ILZ067-068-072-073-078-083-087-091-290000-
SOUTHEAST ILLINOIS

CITY           SKY/WX    TMP DP  RH WIND       PRES   REMARKS
LAWRENCEVILLE  PTCLDY    37  30  75 S12       30.09F WCI  29
FLORA*         PTCLDY    40  32  73 S9        30.05R
FAIRFIELD*     PTCLDY    41  31  68 S8        30.04F
HARRISBURG*    PTCLDY    44  29  56 S9        30.07F
ROBINSON*      PTCLDY    37  30  75 S10       30.09S WCI  30
CARMI*         CLEAR     40  34  78 SE8       30.07S
$$

ABBREVIATIONS USED IN REMARKS
   TC - TEMPERATURE IN CELSIUS
  WCI - WIND CHILL INDEX
   HX - HEAT INDEX
  VSB - VISIBILITY
$$



USA.gov is the U.S. government's official web portal to all federal, state and local government web resources and services.